Hourly Data Report for September 15, 2017

All times are specified in Local Standard Time (LST). Add 1 hour to adjust for Daylight Saving Time where and when it is observed.

BATHURST A
NEW BRUNSWICK

47°37'47.000" N
65°44'20.000" W
58.80 m
8100505
71574
ZBF

Download Data

Hourly Data (September 2017)
Hourly Data Report for September 15, 2017
Temp Definition
°C
Dew Point Temp Definition
°C
Rel Hum Definition
%
Wind Dir Definition
10's deg

Wind Spd Definition
km/h
Visibility Definition
km
Stn Press Definition
kPa
Hmdx Definition


Wind Chill Definition


Weather Definition


TIME
00:00 Legend Double Dagger 9.6 7.9 89 24 4 24.1 100.76     LegendNANA
01:00 Legend Double Dagger 9.9 6.8 81 28 5 24.1 100.83     LegendNANA
02:00 Legend Double Dagger 9.4 6.4 82 28 7 24.1 100.88     Clear
03:00 Legend Double Dagger 7.9 5.5 85 26 4 24.1 100.92     LegendNANA
04:00 Legend Double Dagger 7.3 5.5 89 36 2 24.1 101.00     LegendNANA
05:00 Legend Double Dagger 5.9 4.7 92 27 4 24.1 101.11     Clear
06:00 Legend Double Dagger 6.5 5.3 92 25 4 19.3 101.16     LegendNANA
07:00 Legend Double Dagger 6.8 5.5 92 23 3 19.3 101.24     LegendNANA
08:00 Legend Double Dagger 11.2 7.5 78 29 4 24.1 101.33     Cloudy
09:00 Legend Double Dagger 13.7 7.8 68 6 4 24.1 101.40     LegendNANA
10:00 Legend Double Dagger 15.2 8.3 63 10 4 24.1 101.42     LegendNANA
11:00 Legend Double Dagger 16.4 8.6 60 7 5 24.1 101.39     Cloudy
12:00 Legend Double Dagger 17.8 8.6 55 4 7 24.1 101.34     LegendNANA
13:00 Legend Double Dagger 19.3 7.4 46 36 2 24.1 101.29     LegendNANA
14:00 Legend Double Dagger 20.4 7.0 41 17 4 24.1 101.24     Cloudy
15:00 Legend Double Dagger 18.9 10.5 58 6 12 24.1 101.22     LegendNANA
16:00 Legend Double Dagger 17.6 10.0 60 3 7 24.1 101.23     LegendNANA
17:00 Legend Double Dagger 16.9 7.5 54 2 5 24.1 101.26     Cloudy
18:00 Legend Double Dagger 15.1 7.1 58 1 4 24.1 101.31     LegendNANA
19:00 Legend Double Dagger 12.2 8.7 79 23 6 24.1 101.27     LegendNANA
20:00 Legend Double Dagger 11.5 8.3 81 24 6 24.1 101.31     Mostly Cloudy
21:00 Legend Double Dagger 10.4 8.6 88 25 5 24.1 101.30     LegendNANA
22:00 Legend Double Dagger 10.2 9.0 92 24 6 24.1 101.26     LegendNANA
23:00 Legend Double Dagger 9.4 8.6 95 36 2 24.1 101.23     Mostly Cloudy

Notes on Data Quality.

Legend

  • E = Estimated
  • M = Missing
  • NA = Not Available
  • ‡ = Partner data that is not subject to review by the National Climate Archives
Date modified: